Location: Cedarbrook
(36.3103°N, 86.6422°W)
Time: 09:09:34
(UTC+00:00)

Meteor 2-16 Rocket - Pass Details

Date: 29 October 2020
Orbit: 942 x 956 km, 82.6° (Epoch: 04 December)

Event Time Altitude Azimuth Distance (km) Brightness Sun altitude
Rises 23:11:10 0° 357° (N) 3,613 7.4 -4.4°
Reaches altitude 10° 23:13:43 10° 1° (N) 2,666 6.7 -4.9°
Maximum altitude 23:19:43 59° 81° (E) 1,083 4.5 -6.1°
Drops below altitude 10° 23:25:42 10° 160° (SSE) 2,658 6.7 -7.3°
Sets 23:28:13 0° 164° (SSE) 3,601 7.4 -7.8°
